{"data":{"norad_id":65827,"intl_designator":"2025-221E","name":"STARLINK-35393","alt_names":[],"object_type":"PAYLOAD","status":"ACTIVE","operator":null,"country":"US","launch_date":"2025-09-29","launch_site_code":"AFWTR","launch_vehicle":null,"mission":null,"orbit_class":"UNKNOWN","rcs_meters":null,"size_class":null,"mass_kg":null,"dimensions":null,"purposes":["comms"],"wikipedia_slug":null,"has_3d_model":false,"image_url":null,"decayed_at":null,"tle_current":{"epoch":"2026-09-20T11:26:54.375936Z","epoch_age_seconds":108164,"freshness":"FRESH","line1":"1 65827U 25221E   26263.47701824  .00019937  00000+0  59938-3 0  9997","line2":"2 65827  53.1639 259.5081 0001278  89.5387 270.5763 15.34413842 55965","mean_motion":15.34413842,"eccentricity":0.0001278,"inclination_deg":53.1639,"raan_deg":259.5081,"arg_perigee_deg":89.5387,"mean_anomaly_deg":270.5763,"bstar":0.00059938,"rev_number":5596,"period_min":93.846911477484,"perigee_km":461.78784505044,"apogee_km":463.53635330019,"semimajor_km":6840.7990991753,"source":"CELESTRAK","updated_at":"2026-09-21T09:00:35.719681Z"}}}